Location: Bílinka
(49.3579°N, 14.3767°E)
Time: 11:39:06
(UTC+00:00)

PSLV R/B - Visible Passes

Search period start: 01 October 2023 00:00
Search period end: 11 October 2023 00:00
Orbit: 484 x 543 km, 97.8° (Epoch: 30 September)

Date Brightness Start Highest point End Pass type
(mag) Time Alt. Az. Time Alt. Az. Time Alt. Az.
01 Oct 5.0 17:19:58 10° ESE 17:23:07 24° ENE 17:26:18 10° N visible
01 Oct 5.3 18:53:25 10° SSW 18:56:57 35° W 19:00:35 10° NNW visible
02 Oct 4.5 18:38:01 12° S 18:41:26 52° W 18:45:17 10° NNW visible
03 Oct 3.9 18:22:36 14° S 18:25:56 78° WSW 18:29:54 10° NNW visible
04 Oct 3.7 18:07:10 14° SSE 18:10:28 71° ENE 18:14:23 10° N visible
04 Oct 6.8 19:43:23 10° WSW 19:44:55 12° W 19:46:28 10° WNW visible
05 Oct 4.0 17:51:43 13° SE 17:55:00 48° ENE 17:58:48 10° N visible
05 Oct 6.5 19:26:41 10° SW 19:29:15 17° W 19:31:54 10° NW visible
06 Oct 4.5 17:36:15 11° SE 17:39:33 33° ENE 17:43:07 10° N visible
06 Oct 6.0 19:11:13 15° SW 19:13:35 24° W 19:16:51 10° NW visible
07 Oct 5.0 17:20:57 10° ESE 17:24:07 24° ENE 17:27:19 10° N visible
07 Oct 5.3 18:55:43 19° SSW 18:57:56 35° W 19:01:35 10° NNW visible
08 Oct 5.4 17:06:04 10° ESE 17:08:42 18° ENE 17:11:21 10° NNE visible
08 Oct 4.5 18:40:13 24° SSW 18:42:18 52° W 18:46:10 10° NNW visible
09 Oct 3.8 18:24:42 28° S 18:26:42 78° WSW 18:30:39 10° NNW visible
10 Oct 3.7 18:09:09 28° SSE 18:11:06 71° ENE 18:15:01 10° N visible
10 Oct 6.8 19:44:07 10° WSW 19:45:32 12° W 19:47:08 10° WNW visible
